GW4076 Weather Reports


time (UTC)temp
C
wind
direction
speed
KPH
gust
KPH
rain 1hr
cm
rain 24hr
cm
rain mn
cm
humidity
%
barometer
mb
20260507140543 12 35 1.6 8.0 0.00 0.08 0.00 50 1012.6
20260507135546 12 302 1.6 8.0 0.00 0.15 0.00 53 1012.8
20260507135044 12 94 0.0 8.0 0.00 0.15 0.00 52 1012.9
20260507134549 12 151 1.6 4.8 0.00 0.15 0.00 54 1012.9
20260507134043 12 271 0.0 4.8 0.00 0.15 0.00 58 1013.0
20260507133544 11 271 0.0 4.8 0.00 0.15 0.00 60 1013.1
20260507133057 11 0 0.0 6.4 0.00 0.15 0.00 58 1013.1
20260507132541 11 0 0.0 9.7 0.00 0.15 0.00 58 1013.1
20260507132041 11 265 1.6 9.7 0.00 0.15 0.00 60 1013.1
20260507131616 11 327 0.0 8.0 0.00 0.15 0.00 60 1013.0
20260507131041 11 327 0.0 8.0 0.00 0.15 0.00 61 1013.2
20260507130541 11 327 1.6 8.0 0.00 0.15 0.00 62 1013.2
20260507130106 11 249 1.6 6.4 0.00 0.15 0.00 61 1013.1
20260507125543 11 0 0.0 6.4 0.00 0.30 0.00 62 1013.2
20260507125041 11 337 0.0 6.4 0.00 0.30 0.00 62 1013.1
20260507124600 10 337 0.0 6.4 0.00 0.30 0.00 67 1013.1
20260507124041 10 0 0.0 4.8 0.00 0.30 0.00 64 1013.1
20260507123544 10 0 0.0 6.4 0.00 0.30 0.00 65 1013.1
20260507123050 10 337 0.0 6.4 0.00 0.30 0.00 64 1013.0
20260507122541 10 0 0.0 6.4 0.00 0.30 0.00 65 1013.1
20260507122044 10 0 0.0 3.2 0.00 0.30 0.00 69 1013.0
20260507121548 10 0 0.0 3.2 0.00 0.30 0.00 67 1012.9
20260507121044 10 0 0.0 3.2 0.00 0.30 0.00 68 1012.9
20260507120540 10 0 0.0 3.2 0.00 0.30 0.00 66 1012.9
20260507120048 10 0 0.0 3.2 0.00 0.30 0.00 66 1012.8
20260507115542 10 337 0.0 1.6 0.00 0.46 0.00 67 1012.8
20260507115041 10 0 0.0 3.2 0.00 0.46 0.00 70 1012.8
20260507114551 10 0 0.0 3.2 0.00 0.46 0.00 69 1012.8
20260507114046 10 0 0.0 3.2 0.00 0.46 0.00 70 1012.7
20260507113545 10 0 0.0 3.2 0.00 0.46 0.00 66 1012.7
20260507113135 10 0 0.0 3.2 0.00 0.46 0.00 66 1012.8
20260507112548 10 0 0.0 3.2 0.00 0.46 0.00 65 1012.9
20260507112044 10 0 0.0 3.2 0.00 0.46 0.00 65 1012.9
20260507111559 10 0 0.0 3.2 0.00 0.46 0.00 65 1012.9
20260507111044 10 352 0.0 3.2 0.00 0.46 0.00 65 1012.8
20260507110541 10 0 0.0 3.2 0.00 0.46 0.00 64 1012.7
20260507110054 10 352 0.0 4.8 0.00 0.46 0.00 65 1012.6
20260507105540 10 0 0.0 4.8 0.00 0.48 0.00 66 1012.4
20260507105041 10 0 0.0 4.8 0.00 0.48 0.00 64 1012.3
20260507104605 10 0 0.0 4.8 0.00 0.48 0.00 63 1012.3
20260507104042 10 0 0.0 4.8 0.00 0.48 0.00 64 1012.2
20260507103546 10 0 1.6 4.8 0.00 0.48 0.00 64 1012.0
20260507103055 10 0 0.0 3.2 0.00 0.48 0.00 65 1012.0
20260507102544 10 0 0.0 3.2 0.00 0.48 0.00 63 1012.1
20260507102044 10 0 0.0 3.2 0.00 0.48 0.00 63 1012.1
20260507101559 10 0 0.0 4.8 0.00 0.48 0.00 63 1012.1
20260507101043 10 0 0.0 8.0 0.00 0.48 0.00 64 1012.0
20260507100543 10 0 0.0 8.0 0.00 0.48 0.00 64 1011.8
20260507100059 10 290 0.0 6.4 0.00 0.48 0.00 67 1011.7
20260507095547 10 0 0.0 6.4 0.00 0.48 0.00 67 1011.6
20260507095043 10 0 0.0 8.0 0.00 0.48 0.00 68 1011.6
20260507094555 10 0 1.6 8.0 0.00 0.48 0.00 70 1011.4
20260507094046 10 0 0.0 1.6 0.00 0.48 0.00 71 1011.6
20260507093543 10 0 0.0 1.6 0.00 0.48 0.00 72 1011.5
20260507093052 10 266 0.0 1.6 0.00 0.48 0.00 74 1011.7
20260507092544 10 0 0.0 1.6 0.00 0.48 0.00 73 1011.6
20260507092047 10 0 0.0 3.2 0.00 0.48 0.00 72 1011.7
20260507091555 10 0 0.0 3.2 0.00 0.48 0.00 70 1011.8
20260507091044 10 0 0.0 3.2 0.00 0.48 0.00 70 1011.7
20260507090544 10 0 0.0 11.3 0.00 0.48 0.00 71 1011.7
20260507090049 11 0 0.0 11.3 0.00 0.48 0.00 70 1011.8
20260507085543 11 10 0.0 4.8 0.00 0.48 0.00 71 1011.8
20260507085044 11 0 0.0 4.8 0.00 0.48 0.00 71 1011.7
20260507084557 11 0 0.0 4.8 0.00 0.48 0.00 71 1011.6
20260507084043 11 0 0.0 3.2 0.00 0.48 0.00 72 1011.5
20260507083543 11 0 0.0 3.2 0.00 0.48 0.00 72 1011.6
20260507083053 11 0 0.0 3.2 0.00 0.48 0.00 73 1011.7
20260507082544 11 0 0.0 3.2 0.00 0.48 0.00 75 1011.6
20260507082044 11 0 0.0 3.2 0.00 0.48 0.00 75 1011.4
20260507081554 11 0 0.0 0.0 0.00 0.48 0.00 76 1011.4
20260507081044 11 0 0.0 0.0 0.00 0.48 0.00 77 1011.3
20260507080545 11 0 0.0 4.8 0.00 0.48 0.00 77 1011.2
20260507080056 11 0 0.0 4.8 0.00 0.48 0.00 77 1011.1
20260507075546 11 0 0.0 1.6 0.00 0.48 0.00 78 1010.8
20260507075044 11 0 0.0 4.8 0.00 0.48 0.00 76 1010.8
20260507074557 11 0 0.0 4.8 0.00 0.48 0.00 76 1011.0
20260507074042 11 0 0.0 3.2 0.00 0.48 0.00 76 1011.0
20260507073544 11 0 0.0 6.4 0.00 0.48 0.00 76 1011.0
20260507073056 11 0 0.0 6.4 0.00 0.48 0.00 76 1011.1
20260507072543 11 111 0.0 6.4 0.00 0.48 0.00 77 1010.9
20260507072047 11 0 0.0 6.4 0.00 0.48 0.00 78 1011.0
20260507071553 11 0 1.6 6.4 0.00 0.48 0.00 77 1011.0
20260507071042 11 51 0.0 6.4 0.00 0.48 0.00 77 1011.2
20260507070542 11 0 0.0 6.4 0.00 0.48 0.00 77 1011.2
20260507065543 11 306 0.0 8.0 0.00 0.48 0.00 77 1011.2
20260507065043 11 0 1.6 8.0 0.00 0.48 0.00 76 1011.3
20260507064553 11 0 0.0 3.2 0.00 0.48 0.00 78 1011.3
20260507064043 11 0 0.0 3.2 0.00 0.48 0.00 79 1011.4
20260507063544 11 0 0.0 3.2 0.00 0.48 0.00 78 1011.3
20260507063054 11 115 0.0 4.8 0.00 0.48 0.00 79 1011.3
20260507062543 11 0 0.0 4.8 0.00 0.48 0.00 78 1011.4
20260507062045 11 0 1.6 4.8 0.00 0.48 0.00 77 1011.5
20260507061550 11 156 0.0 4.8 0.00 0.48 0.00 80 1011.5
20260507061043 12 0 0.0 1.6 0.00 0.48 0.00 80 1011.4
20260507060542 12 0 0.0 1.6 0.00 0.48 0.00 81 1011.6
20260507060050 12 0 0.0 3.2 0.00 0.48 0.00 81 1011.5
20260507055543 12 0 0.0 4.8 0.00 0.48 0.00 80 1011.4
20260507055044 12 0 0.0 4.8 0.00 0.48 0.00 80 1011.4
20260507054548 12 0 0.0 3.2 0.00 0.48 0.00 80 1011.3
20260507054044 12 0 0.0 3.2 0.00 0.48 0.00 80 1011.3
20260507053543 12 0 0.0 4.8 0.00 0.48 0.00 80 1011.2
20260507053045 12 0 0.0 4.8 0.00 0.48 0.00 79 1011.3
20260507052542 12 0 0.0 1.6 0.00 0.48 0.00 80 1011.3
20260507052043 12 0 0.0 3.2 0.00 0.48 0.00 80 1011.3
20260507051601 12 0 0.0 3.2 0.00 0.48 0.00 80 1011.4
20260507051042 12 0 0.0 4.8 0.00 0.48 0.00 80 1011.4
20260507050545 12 0 0.0 6.4 0.00 0.48 0.00 80 1011.3
20260507050111 12 0 0.0 6.4 0.00 0.48 0.00 79 1011.4
20260507045543 12 180 0.0 6.4 0.00 0.48 0.00 80 1011.3
20260507045043 12 0 0.0 4.8 0.00 0.48 0.00 81 1011.4
20260507044559 12 157 0.0 4.8 0.00 0.48 0.00 81 1011.2
20260507044046 12 224 0.0 4.8 0.00 0.48 0.00 81 1011.2
20260507043542 12 0 0.0 9.7 0.00 0.48 0.00 81 1010.9
20260507043049 12 0 0.0 9.7 0.00 0.48 0.00 81 1011.2
20260507042545 12 126 0.0 11.3 0.00 0.48 0.00 82 1011.1
20260507042043 12 0 1.6 11.3 0.00 0.48 0.00 83 1011.3
20260507041552 12 0 0.0 9.7 0.00 0.48 0.00 83 1011.5
20260507041042 12 310 0.0 9.7 0.00 0.48 0.00 83 1011.4
20260507040543 12 0 0.0 9.7 0.00 0.48 0.00 83 1011.2
20260507040050 12 344 1.6 8.0 0.00 0.48 0.00 83 1011.2
20260507035542 12 78 0.0 4.8 0.00 0.48 0.48 83 1011.3
20260507035045 12 18 0.0 4.8 0.00 0.48 0.48 83 1011.1
20260507034559 12 0 0.0 6.4 0.00 0.48 0.48 83 1010.9
20260507034042 12 0 1.6 6.4 0.00 0.48 0.48 83 1011.1
20260507033542 12 319 1.6 12.9 0.03 0.48 0.48 83 1011.1
20260507033053 12 0 1.6 12.9 0.03 0.48 0.48 83 1011.0
20260507032543 12 294 3.2 11.3 0.03 0.48 0.48 83 1011.3
20260507032043 12 301 1.6 11.3 0.03 0.48 0.48 83 1011.1
20260507031552 12 296 3.2 11.3 0.03 0.48 0.48 83 1011.0
20260507031046 13 0 0.0 12.9 0.03 0.48 0.48 83 1011.0
20260507030543 13 199 3.2 14.5 0.03 0.48 0.48 82 1011.2
20260507030051 13 0 3.2 14.5 0.03 0.48 0.48 83 1011.0
20260507025545 13 0 0.0 8.0 0.03 0.48 0.48 83 1011.0
20260507025043 13 0 0.0 6.4 0.03 0.48 0.48 83 1010.7
20260507024551 13 0 0.0 9.7 0.03 0.48 0.48 82 1010.9
20260507024044 13 0 0.0 11.3 0.03 0.48 0.48 81 1011.0
20260507023545 13 331 1.6 11.3 0.00 0.46 0.46 80 1010.7
20260507023051 13 232 0.0 8.0 0.00 0.46 0.46 80 1010.9
20260507022542 13 229 1.6 8.0 0.00 0.46 0.46 80 1010.7
20260507022043 13 0 1.6 6.4 0.00 0.46 0.46 80 1010.7
20260507021559 14 0 1.6 6.4 0.00 0.46 0.46 80 1010.6
20260507021043 14 182 1.6 12.9 0.00 0.46 0.46 81 1010.3
20260507020543 14 0 3.2 12.9 0.00 0.46 0.46 80 1010.6
20260507020052 14 0 3.2 11.3 0.00 0.46 0.46 80 1010.3
20260507015542 15 348 0.0 8.0 0.00 0.46 0.46 81 1010.4
20260507015043 15 0 0.0 14.5 0.00 0.46 0.46 81 1010.3
20260507014557 15 234 1.6 14.5 0.00 0.46 0.46 81 1010.5
20260507014043 15 296 0.0 11.3 0.00 0.46 0.46 82 1010.7
20260507013544 15 296 0.0 17.7 0.00 0.46 0.46 81 1010.2
20260507013047 15 296 3.2 17.7 0.00 0.46 0.46 81 1010.1
20260507012546 15 188 1.6 9.7 0.00 0.46 0.46 81 1010.2
20260507012042 15 222 0.0 8.0 0.00 0.46 0.46 80 1010.1
20260507011556 15 0 1.6 9.7 0.00 0.46 0.46 80 1009.9
20260507011042 15 288 1.6 14.5 0.00 0.46 0.46 80 1010.1
20260507010542 15 0 0.0 14.5 0.00 0.46 0.46 81 1010.3
20260507010047 15 223 1.6 14.5 0.00 0.46 0.46 81 1010.2
20260507005542 15 254 1.6 16.1 0.00 0.46 0.46 81 1010.6
20260507005042 15 0 1.6 16.1 0.00 0.46 0.46 82 1010.7
20260507004550 15 0 1.6 16.1 0.00 0.46 0.46 82 1010.5
20260507004043 16 291 3.2 12.9 0.00 0.46 0.46 82 1010.2
20260507003543 16 0 0.0 8.0 0.00 0.46 0.46 82 1010.1
20260507003051 16 0 1.6 9.7 0.00 0.46 0.46 81 1010.0
20260507002542 16 0 3.2 11.3 0.00 0.46 0.46 81 1010.4
20260507002042 16 0 3.2 20.9 0.00 0.46 0.46 82 1010.2
20260507001553 16 313 3.2 20.9 0.00 0.46 0.46 83 1010.0
20260507001042 16 328 1.6 14.5 0.00 0.46 0.46 85 1010.0
20260507000545 16 0 3.2 14.5 0.00 0.46 0.46 85 1009.8
20260507000054 16 224 3.2 14.5 0.00 0.46 0.46 85 1009.8
20260506235543 17 234 0.0 12.9 0.00 0.46 0.46 86 1009.7
20260506235041 17 0 0.0 12.9 0.00 0.46 0.46 87 1009.5
20260506234615 17 348 1.6 11.3 0.00 0.46 0.46 87 1009.5
20260506234042 17 298 1.6 4.8 0.00 0.46 0.46 88 1009.5
20260506233543 17 300 0.0 9.7 0.00 0.46 0.46 88 1009.2
20260506233045 17 300 1.6 9.7 0.00 0.46 0.46 87 1008.8
20260506232545 17 0 0.0 9.7 0.00 0.46 0.46 88 1009.0
20260506232042 17 0 0.0 6.4 0.00 0.46 0.46 87 1008.8
20260506231551 17 0 0.0 6.4 0.00 0.46 0.46 87 1008.8
20260506231042 17 0 0.0 6.4 0.00 0.46 0.46 87 1009.0
20260506230544 17 271 0.0 4.8 0.00 0.46 0.46 88 1008.8
20260506230051 17 0 0.0 6.4 0.00 0.46 0.46 88 1008.9
20260506225542 17 307 0.0 11.3 0.00 0.46 0.46 88 1008.9
20260506225042 17 0 0.0 11.3 0.00 0.46 0.46 87 1008.8
20260506224550 17 286 0.0 9.7 0.00 0.46 0.46 88 1008.8
20260506224042 17 0 0.0 4.8 0.00 0.46 0.46 88 1008.8
20260506223543 18 0 0.0 9.7 0.00 0.46 0.46 88 1008.7
20260506223056 18 0 0.0 9.7 0.00 0.46 0.46 88 1008.7
20260506222543 18 286 0.0 4.8 0.00 0.46 0.46 88 1008.6
20260506222045 18 340 0.0 4.8 0.00 0.46 0.46 88 1008.6
20260506221551 18 0 0.0 1.6 0.00 0.46 0.46 88 1008.5
20260506221044 18 0 0.0 1.6 0.00 0.46 0.46 88 1008.7
20260506220542 18 0 0.0 1.6 0.00 0.46 0.46 88 1008.5
20260506220052 18 0 0.0 1.6 0.00 0.46 0.46 89 1008.3
20260506215542 18 0 0.0 3.2 0.00 0.46 0.46 90 1008.2
20260506215044 18 0 0.0 3.2 0.00 0.46 0.46 90 1008.4
20260506214553 18 0 0.0 3.2 0.00 0.46 0.46 91 1008.3
20260506214044 17 0 0.0 1.6 0.00 0.46 0.46 90 1008.5
20260506213545 17 0 0.0 1.6 0.00 0.46 0.46 90 1008.4
20260506213054 17 0 0.0 1.6 0.00 0.46 0.46 91 1008.4
20260506212543 17 0 0.0 1.6 0.00 0.46 0.46 92 1008.3
20260506212042 17 0 0.0 1.6 0.00 0.46 0.46 92 1008.2
20260506211551 17 0 0.0 1.6 0.00 0.46 0.46 92 1008.2
20260506211044 17 0 0.0 1.6 0.00 0.46 0.46 93 1007.9
20260506210547 17 0 0.0 1.6 0.00 0.46 0.46 92 1007.9
20260506210054 17 0 0.0 1.6 0.00 0.46 0.46 93 1007.9
20260506205543 17 0 0.0 0.0 0.00 0.46 0.46 93 1007.7
20260506205043 17 0 0.0 1.6 0.00 0.46 0.46 93 1007.9
20260506204600 17 0 0.0 1.6 0.00 0.46 0.46 93 1007.9
20260506204045 17 0 0.0 0.0 0.00 0.46 0.46 93 1007.8
20260506203544 17 0 0.0 1.6 0.00 0.46 0.46 93 1007.6
20260506203056 17 0 0.0 1.6 0.00 0.46 0.46 92 1007.8
20260506202542 17 0 0.0 1.6 0.00 0.46 0.46 92 1007.8
20260506202044 17 0 0.0 1.6 0.00 0.46 0.46 92 1007.8
20260506201556 17 0 0.0 1.6 0.03 0.46 0.46 92 1007.7
20260506201043 17 0 0.0 1.6 0.03 0.46 0.46 92 1007.7
20260506200543 17 0 0.0 1.6 0.03 0.46 0.46 92 1007.9
20260506200109 17 0 0.0 0.0 0.03 0.46 0.46 91 1007.8
20260506195542 17 0 0.0 0.0 0.03 0.46 0.46 91 1008.0
20260506195042 17 0 0.0 0.0 0.03 0.46 0.46 91 1007.8
20260506194611 17 0 0.0 0.0 0.03 0.46 0.46 90 1007.7
20260506194043 17 0 0.0 0.0 0.03 0.46 0.46 90 1007.8
20260506193544 17 0 0.0 1.6 0.03 0.46 0.46 89 1007.8
20260506193055 17 0 0.0 1.6 0.03 0.46 0.46 88 1008.0
20260506192544 17 0 0.0 3.2 0.03 0.46 0.46 88 1008.0
20260506192048 17 0 0.0 3.2 0.03 0.46 0.46 88 1008.1
20260506191552 17 0 0.0 9.7 0.00 0.43 0.43 87 1007.9
20260506191042 17 0 0.0 9.7 0.00 0.43 0.43 87 1008.0
20260506190545 17 0 0.0 9.7 0.00 0.43 0.43 87 1007.9
20260506190052 17 0 0.0 4.8 0.00 0.43 0.43 86 1008.0
20260506185544 17 0 0.0 6.4 0.00 0.43 0.43 86 1007.9
20260506185047 17 183 0.0 6.4 0.00 0.43 0.43 86 1008.0
20260506184602 17 0 1.6 6.4 0.00 0.43 0.43 85 1008.1
20260506184042 17 201 1.6 6.4 0.00 0.43 0.43 85 1008.1
20260506183541 17 186 1.6 6.4 0.00 0.43 0.43 85 1008.1
20260506183102 17 185 1.6 11.3 0.00 0.43 0.43 85 1008.3
20260506182543 17 185 1.6 11.3 0.00 0.43 0.43 86 1008.1
20260506182043 17 171 0.0 4.8 0.00 0.43 0.43 87 1008.2
20260506181553 17 68 0.0 4.8 0.00 0.43 0.43 87 1008.2
20260506181045 17 0 0.0 4.8 0.00 0.43 0.43 88 1008.3
20260506180547 17 11 0.0 4.8 0.00 0.43 0.43 88 1008.3
20260506180050 17 0 0.0 4.8 0.00 0.43 0.43 87 1008.4
20260506175546 17 190 1.6 8.0 0.00 0.43 0.43 86 1008.5
20260506175043 17 0 1.6 8.0 0.00 0.43 0.43 86 1008.4
20260506174549 17 160 1.6 8.0 0.00 0.43 0.43 85 1008.5
20260506174044 17 160 1.6 8.0 0.00 0.43 0.43 85 1008.4
20260506173542 17 190 1.6 8.0 0.00 0.43 0.43 85 1008.4
20260506173055 17 189 1.6 8.0 0.00 0.43 0.43 85 1008.3
20260506172543 17 194 1.6 8.0 0.00 0.43 0.43 85 1008.4
20260506172056 17 237 3.2 11.3 0.00 0.43 0.43 85 1008.3
20260506171559 17 194 3.2 11.3 0.00 0.43 0.43 85 1008.2
20260506171042 17 213 3.2 11.3 0.00 0.43 0.43 86 1008.3
20260506170542 17 0 3.2 9.7 0.00 0.43 0.43 86 1008.3
20260506170057 17 176 3.2 8.0 0.00 0.43 0.43 87 1008.4
20260506165544 17 240 3.2 9.7 0.00 0.43 0.43 88 1008.4
20260506165042 17 182 4.8 12.9 0.00 0.43 0.43 88 1008.4
20260506164557 16 169 3.2 12.9 0.00 0.43 0.43 90 1008.4
20260506164044 16 174 3.2 16.1 0.00 0.43 0.43 90 1008.4
20260506163542 16 179 4.8 16.1 0.00 0.43 0.43 91 1008.4
20260506163055 16 171 3.2 12.9 0.00 0.43 0.43 91 1008.4
20260506162544 16 155 3.2 12.9 0.00 0.43 0.43 92 1008.5
20260506162044 15 178 3.2 9.7 0.00 0.43 0.43 92 1008.6
20260506161603 15 167 1.6 8.0 0.00 0.43 0.43 92 1008.6
20260506161045 15 207 3.2 9.7 0.00 0.43 0.43 93 1008.4
20260506160545 15 134 3.2 9.7 0.00 0.43 0.43 93 1008.3
20260506160055 15 360 1.6 14.5 0.00 0.43 0.43 93 1008.5
20260506155542 15 162 3.2 14.5 0.00 0.43 0.43 93 1008.4
20260506155046 15 229 1.6 11.3 0.00 0.43 0.43 93 1008.5
20260506154556 15 0 3.2 11.3 0.00 0.43 0.43 93 1008.6
20260506154049 15 217 1.6 9.7 0.00 0.43 0.43 93 1008.7
20260506153543 15 174 1.6 9.7 0.00 0.43 0.43 93 1008.5
20260506153051 15 172 4.8 9.7 0.03 0.43 0.43 93 1008.4
20260506152542 15 0 3.2 11.3 0.03 0.43 0.43 93 1008.5
20260506152047 15 170 3.2 11.3 0.03 0.43 0.43 93 1008.5
20260506151605 15 136 1.6 6.4 0.03 0.43 0.43 93 1008.4
20260506151044 15 215 1.6 8.0 0.03 0.43 0.43 93 1008.3
20260506150544 15 141 1.6 8.0 0.03 0.43 0.43 93 1008.4
20260506150056 15 163 3.2 8.0 0.03 0.43 0.43 94 1008.9
20260506145546 15 159 1.6 9.7 0.03 0.43 0.43 94 1008.7
20260506145045 15 160 4.8 9.7 0.03 0.43 0.43 93 1008.5
20260506144550 15 161 1.6 9.7 0.03 0.43 0.43 93 1008.5
20260506144043 15 153 1.6 11.3 0.03 0.43 0.43 93 1008.7
20260506143543 15 88 0.0 11.3 0.05 0.43 0.43 93 1008.9
20260506143057 15 0 1.6 11.3 0.03 0.41 0.41 93 1009.1
20260506142543 15 0 1.6 6.4 0.03 0.41 0.41 93 1009.2
20260506142044 15 0 0.0 6.4 0.03 0.41 0.41 93 1009.1
20260506141607 15 20 1.6 4.8 0.05 0.41 0.41 93 1009.0
20260506141042 15 194 0.0 8.0 0.05 0.41 0.41 93 1009.1